Showing default

COSMOS 2475 (GLONASS), 37869

Orbit data source: Space-Track

COSMOS 2475 (GLONASS), 37869 is a Commonwealth of Independent States-origin payload satellite in MEO that was launched on Fri, 04 Nov 2011 UTC via a PROTON-M/BRIZ-M launch vehicle from the Tyuratam Missile And Space Complex (TTMTR). Payload-class satellites include a variety of spacecraft equipped with specific instruments for various scientific and technological missions. These include communications satellites like Starlink; space stations such as the ISS; scientific satellites like the Hubble; Earth observation satellites from companies like Planet Labs, Umbra, and HawkEye 360; GPS; miniature CubeSats for education and research; and military/defense satellites.

Loading next visibility...
Identifier
37869, 2011-064C
Orbit
MEO
Country
Flag of CISCIS
Related business
Manufacturer
Resehetnev ISS
Mission
Operational Defense Navigation
Bus & Motor
URAGAN, Unknown motor
Mass
1,450 kg wet, ~1,200 kg dry
Launch date (UTC)
2011-11-04 (15 years ago)
Launch vehicle
PROTON-M/BRIZ-M
Launch site
Tyuratam Missile And Space Complex (TTMTR)
Object type
Payload
Rocket body
Debris
Shape & HBR
Cyl + 1 Ant + 2 Pan, 3.9 m
Radar Cross Section
8.467 m², Large (>1 m²)

Expand to show TLE details & history
Last TLE update: 1 day ago

TLE from 1 day ago
0 COSMOS 2475 (GLONASS)
1 37869U 11064C   26255.22503559  .00000000  00000-0  00000-0 0  9996
2 37869  65.3375  70.0384 0024498 246.3694 225.8740  2.13101319115621
Epoch: 2026-09-12T05:24Z
TLE epoch observation values (Epoch: 2026-09-12T05:24:03.074Z)
Latitude
57.409°
Longitude
131.89801°
Altitude
19,182.421 km
Speed
3.947 km/s
True Right ascension
13h 36m 35s
True Declination
57° 21' 56"
Sunlit
Object was in daylight at epoch
Visualization orbit readout
Latitude
Unknown
Longitude
Unknown
Altitude
Unknown
Speed
Unknown
Apparent Right ascension
Unknown
Apparent Declination
Unknown
Sunlit
N/A
Visualization observer readout
Local Sidereal Time
01:08:38
Azimuth
Unknown
Elevation
Unknown
Doppler factor
Unknown
Orbital elements
Apogee altitude
19,192.034 km
Perigee altitude
19,067.056 km
Semi-major axis
25,507.682 km
Eccentricity
0.00245
Inclination
65.3375°
RAAN
70.0384°
Arg. of periapsis
246.3694°
True anomaly
225.67292°
Mean anomaly
225.874°
Eccentric anomaly
225.77342°
Mean motion
0.53277 °/min
Orbital period
675.72 mins
BSTAR
0
Loading maneuver chart data...
Computing Atmospheric mass density...
Loading historical data...
Loading historical data...
Loading historical data...
Loading historical data...
Loading historical data...
Loading historical data...
Loading historical data...

Documentation

Showing up to 5 results
|